Regional Weather Roundup
Issued by NWS Charleston, SC

Current Version | Previous Version | Graphics & Text | Print | Product List | Glossary On
Versions: 1 2 3 4 5 6 7 8 9 10 11 12 13 14 15 16 17 18 19 20 21 22 23 24 25 26 27 28 29 30 31 32 33 34 35 36 37 38 39 40 41 42 43 44 45 46 47 48 49 50
000
ASUS42 KCHS 202112
RWRCHS

Regional Weather Roundup
National Weather Service Charleston SC
500 PM EDT SUN MAY 20 2018

NOTE: "fair" indicates few or no clouds below 12,000 feet with no
significant weather and/or obstructions to visibility.

Not all stations are quality controlled. Use data with caution,
especially dewpoint observations.

SCZ027-030-031-034>040-042>050-202200-
...Southeast South Carolina...

CITY           SKY/WX    TMP DP  RH WIND       PRES   REMARKS
N Charleston   CLOUDY    79  69  71 S10       30.13F
Waterfront Prk   N/A     77  70  79 S9        29.98F
Mount Pleasant FAIR      79  70  73 S9        30.14S
Johns Island   FAIR      79  70  73 SW12      30.14F
Pinopolis        N/A     79  73  83 VRB3      30.06F
Moncks Corner  FAIR      77  70  78 S9        30.12F
Summerville    FAIR      79  70  73 S7        30.13F
Beaufort MCAS  LGT RAIN  76  72  87 S9        30.15R
Beaufort Arpt  DRIZZLE   73  70  88 S9        30.14S
Hilton Head Is DRIZZLE   75  70  83 SE5       30.16F
Walterboro     FAIR      73  70  88 CALM      30.14F
Allendale      FAIR      79  72  78 CALM      30.12S

...Southern Midlands and Pee Dee...

CITY           SKY/WX    TMP DP  RH WIND       PRES   REMARKS
Georgetown     FAIR      77  73  88 S8        30.14S
Kingstree      FAIR      81  70  69 S3        30.11F
Orangeburg     LGT RAIN  76  69  79 CALM      30.12F
Barnwell       FAIR      81  72  74 SW7       30.12F
Aiken          MOCLDY    72  70  94 S3        30.16S
Manning        FAIR      77  68  73 S5        30.12S
Columbia       CLOUDY    78  72  81 SW7       30.10F
Sumter         CLOUDY    78  69  73 S6        30.10S
Florence       FAIR      84  70  62 SW8       30.11S
Myrtle Beach   FAIR      79  72  79 S12       30.14F
N Myrtle Beach FAIR      77  72  84 SW14      30.13F

$$

GAZ063-065-086>088-099>101-113>116-118-119-134>141-150-202200-
...Southeast Georgia...

CITY           SKY/WX    TMP DP  RH WIND       PRES   REMARKS
Savannah Arpt  LGT RAIN  76  69  79 S10       30.15S
Hunter AAF     LGT RAIN  75  68  78 SE9       30.13
Fort Stewart   FAIR      72  69  92 CALM      30.13F
Statesboro     DRIZZLE   76  70  80 S7        30.15R
Sylvania       DRIZZLE   77  73  85 SW6       30.15R
Claxton        DRIZZLE   76  73  89 SE3       30.15S

...CSRA, Central and far Southeast Georgia...

CITY           SKY/WX    TMP DP  RH WIND       PRES   REMARKS
Thomson        LGT RAIN  79  72  79 W5        30.16S
Augusta-Bush   LGT RAIN  73  70  90 CALM      30.11S
Augusta-Daniel LGT RAIN  75  69  81 SE9       30.13S
Swainsboro     CLOUDY    79  70  73 S5        30.15R
Vidalia        LGT RAIN  77  66  69 S23       30.17R
Eastman        FAIR      79  59  49 S10       30.16S
Hazlehurst     LGT RAIN  72  66  81 E6        30.14S
Alma           LGT RAIN  74  70  87 CALM      30.13F
Waycross       DRIZZLE   74  71  90 CALM      30.13F
Jesup          NOT AVBL
Baxley         LGT RAIN  70  70 100 CALM      30.14F
Brunswick      FAIR      73  70  88 NE5       30.14F
Saint Simons   PTSUNNY   75  72  90 NE6       30.13F

$$

SCZ027-028-034-036>038-045-046-048>050-GAZ119-141-202200-
...Lake and Supplemental Coastal Observations...

STATION/POSITION TIME  TEMP    WIND        PRES    WAVE   SWELL
                       AIR SEA DIR/SP/G            HT/PER HT/PER/DIR
                 (UTC) (F)     (DEG/KT/KT) (MB)    (FT/S) (FT/S/D)
Winyah Bay       1945   79     200/ 14     1021.0
Lake Murray      2020   76     170/  3/  5 1019.0F
ACE Basin NERRS  1945   78     150/  2     1021.0
Fort Pulaski     2042   73 78  160/  4/  7 1021.5F
Sapelo Island    2000   75      90/  3     1021.0

$$

ANZ835-935-AMZ111-154-330-350-352-354-370-450-454-472-202200-
...C-MAN and Buoy Observations...

STATION/POSITION TIME  TEMP    WIND        PRES    WAVE   SWELL
                       AIR SEA DIR/SP/G            HT/PER HT/PER/DIR
                 (UTC) (F)     (DEG/KT/KT) (MB)    (FT/S) (FT/S/D)
Buoy 41004       2050      74  200/  8/ 12 1020.8F   6/ 9   5/140/ 9
Buoy 41008       2050   73 75  360/  4/  4 1020.3F   3/ 8   3/110/ 8
Folly Beach CMAN 2000   75     210/ 12/ 14 1021.6F
Capers Nearshore 2008   75 76  200/ 16/ 19 1021.8F
Fripp Nearshore  2008   74 77  190/ 12/ 16 1020.7F


STATION/POSITION TIME  TEMP    WIND        PRES    WAVE   SWELL
                       AIR SEA DIR/SP/G            HT/PER HT/PER/DIR
                 (UTC) (F)     (DEG/KT/KT) (MB)    (FT/S) (FT/S/D)
5E St. Marys GA  2030      75                N/A     3/ 8
Frying Pan Buoy  2050   75 76  190/ 16/ 17 1021.0F   6/ 8
Buoy 41025       2050   76 76  210/ 17/ 21 1020.8F   7/ 8   2/130/14
Cape Lookout NC  2000          210/ 11/ 13 1021.1F
Buoy 41002       2050      77  160/ 12/ 16 1022.5F   5/ 8   3/140/ 8
Buoy 41010       2050   78 78  110/ 16/ 19 1020.3F   6/ 8   3/120/ 8
St Augustine FL  2100   76 76  130/  8/  9 1019.6F


$$



USA.gov is the U.S. government's official web portal to all federal, state and local government web resources and services.